TimeCDT,TemperatureF,Dew PointF,Humidity,Sea Level PressureIn,VisibilityMPH,Wind Direction,Wind SpeedMPH,Gust SpeedMPH,PrecipitationIn,Events,Conditions,WindDirDegrees,DateUTC
12:52 AM,51.1,41.0,68,29.78,10.0,NE,15.0,-,N/A,,Clear,40,2013-03-16 05:52:00
1:52 AM,48.9,41.0,74,29.81,10.0,NE,11.5,-,N/A,,Clear,40,2013-03-16 06:52:00
2:52 AM,48.0,39.9,74,29.84,9.0,North,8.1,-,N/A,,Clear,360,2013-03-16 07:52:00
3:52 AM,44.1,39.0,82,29.83,7.0,NE,8.1,-,N/A,,Clear,40,2013-03-16 08:52:00
4:52 AM,43.0,37.9,82,29.89,6.0,NNE,15.0,18.4,N/A,,Haze,30,2013-03-16 09:52:00
5:08 AM,42.8,37.4,81,29.92,6.0,NNE,11.5,19.6,N/A,,Haze,20,2013-03-16 10:08:00
5:36 AM,42.8,37.4,81,29.91,5.0,NNE,10.4,-,N/A,,Scattered Clouds,20,2013-03-16 10:36:00
5:52 AM,42.1,37.0,82,29.90,6.0,NE,15.0,25.3,N/A,,Haze,40,2013-03-16 10:52:00
6:27 AM,42.8,37.4,81,29.94,6.0,NNE,6.9,17.3,N/A,,Haze,30,2013-03-16 11:27:00
6:52 AM,41.0,37.0,86,29.94,6.0,NE,8.1,-,N/A,,Mostly Cloudy,50,2013-03-16 11:52:00
7:04 AM,39.2,35.6,87,29.95,8.0,NNE,13.8,24.2,N/A,,Scattered Clouds,30,2013-03-16 12:04:00
7:52 AM,37.9,33.1,83,29.96,8.0,NNE,13.8,-,N/A,,Partly Cloudy,30,2013-03-16 12:52:00
8:14 AM,37.4,32.0,81,29.98,7.0,NNE,15.0,24.2,N/A,,Mostly Cloudy,20,2013-03-16 13:14:00
8:49 AM,37.4,30.2,75,30.00,9.0,NE,16.1,23.0,N/A,,Overcast,40,2013-03-16 13:49:00
8:52 AM,37.0,30.9,79,30.01,9.0,NNE,16.1,24.2,N/A,,Overcast,30,2013-03-16 13:52:00
9:52 AM,37.0,30.0,76,30.04,10.0,NNE,12.7,21.9,N/A,,Overcast,30,2013-03-16 14:52:00
10:52 AM,37.9,30.9,76,30.06,10.0,NE,18.4,-,N/A,,Overcast,40,2013-03-16 15:52:00
11:52 AM,42.1,30.9,65,30.06,8.0,NE,18.4,24.2,N/A,,Mostly Cloudy,40,2013-03-16 16:52:00
12:10 PM,42.8,30.2,61,30.05,9.0,NE,18.4,26.5,N/A,,Scattered Clouds,50,2013-03-16 17:10:00
12:49 PM,42.8,30.2,61,30.05,10.0,NNE,15.0,25.3,N/A,,Mostly Cloudy,20,2013-03-16 17:49:00
12:52 PM,42.1,30.9,65,30.06,10.0,North,13.8,23.0,N/A,,Mostly Cloudy,10,2013-03-16 17:52:00
1:43 PM,44.6,30.2,57,30.05,9.0,NNE,17.3,27.6,N/A,,Scattered Clouds,30,2013-03-16 18:43:00
1:52 PM,44.1,30.0,58,30.06,10.0,NE,18.4,27.6,N/A,,Partly Cloudy,40,2013-03-16 18:52:00
2:52 PM,44.6,28.4,53,30.03,6.0,NNE,20.7,27.6,N/A,,Haze,30,2013-03-16 19:52:00
3:52 PM,41.0,28.9,62,30.05,9.0,NNE,15.0,-,N/A,,Scattered Clouds,30,2013-03-16 20:52:00
4:44 PM,41.0,28.4,61,30.03,10.0,NE,16.1,-,N/A,,Mostly Cloudy,40,2013-03-16 21:44:00
4:52 PM,39.9,28.9,65,30.05,10.0,NE,16.1,-,N/A,,Scattered Clouds,40,2013-03-16 21:52:00
5:42 PM,41.0,28.4,61,30.02,10.0,NNE,13.8,-,N/A,,Mostly Cloudy,30,2013-03-16 22:42:00
5:52 PM,39.9,28.9,65,30.04,10.0,NNE,17.3,23.0,N/A,,Mostly Cloudy,30,2013-03-16 22:52:00
6:04 PM,39.2,28.4,65,30.02,10.0,NNE,15.0,-,N/A,,Scattered Clouds,20,2013-03-16 23:04:00
6:52 PM,37.9,28.0,68,30.05,10.0,NNE,15.0,-,N/A,,Overcast,30,2013-03-16 23:52:00
7:52 PM,37.0,28.0,70,30.08,10.0,NNE,12.7,-,N/A,,Overcast,30,2013-03-17 00:52:00
8:52 PM,36.0,27.0,70,30.10,10.0,NE,17.3,-,N/A,,Overcast,40,2013-03-17 01:52:00
9:52 PM,36.0,26.1,67,30.10,10.0,NNE,19.6,-,N/A,,Overcast,30,2013-03-17 02:52:00
10:52 PM,34.0,27.0,75,30.10,10.0,NNE,15.0,-,N/A,,Overcast,30,2013-03-17 03:52:00
11:52 PM,33.1,27.0,78,30.09,10.0,NE,16.1,-,N/A,,Mostly Cloudy,40,2013-03-17 04:52:00